This demonstration page uses our WeatherBlox Daily Observations layout. Learn more.

Left ArrowRight Arrow

36.17497, -115.13722

Hourly Observations for March 12, 2021

Temp ( °F °C ) Dew Point ( °F °C ) Humidity (%) Winds ( mph kmh ) Pressure ( in mb ) Visibility ( mi km ) Precip ( " mm )
12:53 am 00:53 Cloudy 44 6.7 32 0 63 63 ESE 3 6 30.05 1018 10 16 0.00 0.00
1:53 am 01:53 Cloudy 43 6.1 34 1.1 71 71 E 7 11 30.05 1018 10 16 0.00 0.00
2:53 am 02:53 Cloudy 42 5.6 35 1.7 76 76 E 5 7 30.04 1017 10 16 0.00 0.00
3:20 am 03:20 Cloudy with Light Rain 42 5.6 36 2.2 79 79 E 5 7 30.02 1017 10 16 0.00 0.00
3:53 am 03:53 Cloudy with Light Rain 42 5.6 37 2.8 82 82 Calm 30.04 1017 10 16 0.00 0.00
4:35 am 04:35 Cloudy 42 5.6 37 2.8 82 82 Calm 30.02 1017 10 16 0.00 0.00
4:53 am 04:53 Cloudy 42 5.6 36 2.2 79 79 Calm 30.05 1018 10 16 0.00 0.00
5:50 am 05:50 Cloudy with Light Rain 43 6 37 3 81 81 NE 3 6 30.03 1017 9 14 0.00 0.00
5:53 am 05:53 Cloudy with Light Rain 42 5.6 37 2.8 82 82 N 3 6 30.06 1018 7 11 0.01 0.25
6:53 am 06:53 Cloudy with Light Rain 42 5.6 35 1.7 76 76 WNW 10 17 30.06 1018 6 10 0.10 2.54
7:17 am 07:17 Cloudy with Light Rain 42 5.6 35 1.7 76 76 WNW 8 13 30.05 1018 10 16 0.00 0.00
7:53 am 07:53 Cloudy 42 5.6 35 1.7 76 76 W 5 7 30.09 1019 10 16 0.00 0.00
8:31 am 08:31 Cloudy 43 6.1 36 2.2 76 76 W 7 11 30.07 1018 10 16 0.00 0.00
8:41 am 08:41 Cloudy 44 6.7 36 2.2 73 73 WSW 6 9 30.06 1018 10 16 0.00 0.00
8:49 am 08:49 Cloudy 45 7 36 2 71 71 WNW 10 17 30.06 1018 10 16 0.00 0.00
8:53 am 08:53 Cloudy 45 7.2 36 2.2 71 71 WNW 13 20 30.09 1019 10 16 0.00 0.00
9:53 am 09:53 Cloudy 45 7.2 36 2.2 71 71 N 8 13 30.10 1019 10 16 0.00 0.00
10:06 am 10:06 Cloudy 45 7.2 36 2.2 71 71 N 6 9 30.07 1018 10 16 0.00 0.00
10:22 am 10:22 Cloudy 45 7.2 36 2.2 71 71 VRB 7 11 30.07 1018 10 16 0.00 0.00
10:53 am 10:53 Cloudy 44 6.7 37 2.8 76 76 SSE 8 13 30.11 1020 10 16 0.00 0.00
11:30 am 11:30 Cloudy 45 7.2 37 2.8 74 74 S 5 7 30.06 1018 10 16 0.00 0.00
11:53 am 11:53 Mostly Sunny 45 7.2 36 2.2 71 71 SSW 3 6 30.09 1019 10 16 0.00 0.00
12:53 pm 12:53 Sunny 50 10 34 1.1 54 54 ESE 3 6 30.06 1018 10 16 0.00 0.00
1:53 pm 13:53 Cloudy 48 8.9 35 1.7 61 61 NW 13 20 30.06 1018 10 16 0.00 0.00
2:53 pm 14:53 Cloudy 46 7.8 35 1.7 66 66 WSW 13 20 30.09 1019 10 16 0.00 0.00
3:53 pm 15:53 Cloudy with Light Rain 46 7.8 36 2.2 68 68 SSW 10 17 30.07 1018 10 16 0.00 0.00
4:53 pm 16:53 Mostly Cloudy 47 8.3 33 0.6 59 59 Calm 30.07 1018 10 16 0.00 0.00
5:53 pm 17:53 Cloudy 47 8.3 33 0.6 59 59 Calm 30.07 1018 10 16 0.00 0.00
6:53 pm 18:53 Cloudy 47 8.3 34 1.1 61 61 Calm 30.09 1019 10 16 0.00 0.00
7:16 pm 19:16 Cloudy with Rain 45 7.2 36 2.2 71 71 WNW 10 17 30.05 1018 7 11 0.00 0.00
7:37 pm 19:37 Cloudy 45 7.2 37 2.8 74 74 W 8 13 30.06 1018 10 16 0.00 0.00
7:53 pm 19:53 Cloudy 45 7.2 37 2.8 74 74 W 7 11 30.10 1019 10 16 0.00 0.00
8:53 pm 20:53 Cloudy 45 7.2 37 2.8 74 74 W 3 6 30.10 1019 10 16 0.00 0.00
9:53 pm 21:53 Mostly Clear 45 7.2 37 2.8 74 74 Calm 30.09 1019 10 16 0.00 0.00
10:53 pm 22:53 Cloudy 45 7.2 38 3.3 77 77 W 5 7 30.08 1019 10 16 0.00 0.00
11:53 pm 23:53 Cloudy 44 6.7 37 2.8 76 76 NW 6 9 30.08 1019 10 16 0.00 0.00

Powered by AerisWeather